FW2143 Weather Reports


Display with metric or nautical units.
time (UTC)temp
F
wind
direction
speed
MPH
gust
MPH
rain 1hr
in
rain 24hr
in
rain mn
in
humidity
%
barometer
mb
20260506191325 69 200 1.0 6.0 0.00 0.00 0.00 57 1021.0
20260506190824 69 165 1.0 6.0 0.00 0.00 0.00 57 1021.0
20260506190328 69 85 1.0 5.0 0.00 0.00 0.00 57 1021.1
20260506185820 68 149 2.0 5.0 0.00 0.00 0.00 60 1020.9
20260506185314 68 127 1.0 5.0 0.00 0.00 0.00 58 1020.9
20260506184955 67 195 2.0 7.0 0.00 0.00 0.00 60 1020.7
20260506184842 68 124 1.0 7.0 0.00 0.00 0.00 58 1020.9
20260506183813 67 127 1.0 5.0 0.00 0.00 0.00 61 1020.7
20260506183319 66 163 1.0 5.0 0.00 0.00 0.00 60 1020.8
20260506182825 67 122 2.0 4.0 0.00 0.00 0.00 58 1020.7
20260506182315 67 126 1.0 5.0 0.00 0.00 0.00 59 1020.8
20260506181816 67 90 2.0 6.0 0.00 0.00 0.00 61 1020.8
20260506181438 66 67 1.0 6.0 0.00 0.00 0.00 61 1020.7
20260506181334 67 141 2.0 6.0 0.00 0.00 0.00 60 1020.8
20260506180316 65 131 0.0 3.0 0.00 0.00 0.00 61 1020.7
20260506175816 65 57 1.0 4.0 0.00 0.00 0.00 62 1020.8
20260506175306 65 112 1.0 4.0 0.00 0.00 0.00 61 1020.7
20260506174808 64 130 1.0 5.0 0.00 0.00 0.00 62 1020.7
20260506174303 65 261 1.0 5.0 0.00 0.00 0.00 63 1020.7
20260506173800 64 76 1.0 5.0 0.00 0.00 0.00 62 1020.4
20260506173301 64 164 1.0 5.0 0.00 0.00 0.00 63 1020.5
20260506172758 63 234 1.0 5.0 0.00 0.00 0.00 65 1020.4
20260506172527 62 214 1.0 6.0 0.00 0.00 0.00 66 1020.3
20260506172331 63 136 1.0 5.0 0.00 0.00 0.00 65 1020.4
20260506171234 62 62 2.0 6.0 0.00 0.00 0.00 64 1020.3
20260506170741 62 67 2.0 5.0 0.00 0.00 0.00 65 1020.2
20260506170247 62 84 1.0 4.0 0.00 0.00 0.00 65 1020.1
20260506170237 62 178 1.0 4.0 0.00 0.00 0.00 65 1020.3
20260506170218 61 160 1.0 4.0 0.00 0.00 0.00 66 1020.1
20260506165825 62 117 0.0 2.0 0.00 0.00 0.00 65 1020.3
20260506164229 61 248 0.0 4.0 0.00 0.00 0.00 68 1020.0
20260506163726 60 70 1.0 4.0 0.00 0.00 0.00 66 1019.9
20260506163223 61 139 1.0 4.0 0.00 0.00 0.00 66 1019.9
20260506162711 61 66 0.0 2.0 0.00 0.00 0.00 66 1019.8
20260506162151 60 165 0.0 3.0 0.00 0.00 0.00 69 1019.9
20260506161648 60 143 0.0 3.0 0.00 0.00 0.00 69 1019.8
20260506161143 60 137 0.0 3.0 0.00 0.00 0.00 69 1019.9
20260506160643 60 154 0.0 3.0 0.00 0.00 0.00 69 1019.8
20260506160135 60 105 1.0 2.0 0.00 0.00 0.00 71 1019.8
20260506155727 59 155 0.0 2.0 0.00 0.00 0.00 70 1019.8
20260506155131 59 136 0.0 2.0 0.00 0.00 0.00 71 1019.6
20260506154630 58 207 1.0 3.0 0.00 0.00 0.00 73 1019.4
20260506154427 58 196 1.0 3.0 0.00 0.00 0.00 72 1019.6
20260506154211 58 119 1.0 3.0 0.00 0.00 0.00 73 1019.6
20260506153126 58 214 1.0 3.0 0.00 0.00 0.00 73 1019.6
20260506152624 58 173 1.0 3.0 0.00 0.00 0.00 73 1019.6
20260506152116 58 220 0.0 2.0 0.00 0.00 0.00 70 1019.3
20260506151617 58 119 0.0 1.0 0.00 0.00 0.00 70 1019.4
20260506151109 57 207 0.0 1.0 0.00 0.00 0.00 72 1019.2
20260506150621 56 94 0.0 0.0 0.00 0.00 0.00 74 1019.1
20260506150609 57 172 0.0 0.0 0.00 0.00 0.00 73 1019.2
20260506145612 56 108 0.0 0.0 0.00 0.00 0.00 74 1019.1
20260506145059 56 81 0.0 2.0 0.00 0.00 0.00 75 1019.1
20260506144554 57 71 0.0 2.0 0.00 0.00 0.00 73 1019.2
20260506144057 56 162 0.0 0.0 0.00 0.00 0.00 73 1019.2
20260506143535 57 157 0.0 0.0 0.00 0.00 0.00 72 1019.3
20260506143027 57 23 0.0 0.0 0.00 0.00 0.00 72 1019.4
20260506142544 54 23 0.0 0.0 0.00 0.00 0.00 81 1018.9
20260506142533 56 23 0.0 0.0 0.00 0.00 0.00 75 1019.1
20260506141523 52 23 0.0 0.0 0.00 0.00 0.00 81 1018.5
20260506141011 51 23 0.0 0.0 0.00 0.00 0.00 84 1018.5
20260506140516 50 23 0.0 0.0 0.00 0.00 0.00 86 1018.3
20260506140011 49 23 0.0 0.0 0.00 0.00 0.00 86 1018.0
20260506135511 49 23 0.0 0.0 0.00 0.00 0.00 87 1017.7
20260506135010 48 23 0.0 0.0 0.00 0.00 0.00 87 1017.6
20260506134515 48 23 0.0 0.0 0.00 0.00 0.00 88 1017.6
20260506134011 48 23 0.0 0.0 0.00 0.00 0.00 88 1017.5
20260506133513 47 23 0.0 0.0 0.00 0.00 0.00 87 1017.4
20260506133009 47 23 0.0 0.0 0.00 0.00 0.00 87 1017.5
20260506132438 47 23 0.0 0.0 0.00 0.00 0.00 87 1017.5
20260506131930 47 23 0.0 0.0 0.00 0.00 0.00 87 1017.4
20260506131422 47 23 0.0 0.0 0.00 0.00 0.00 87 1017.3
20260506130917 47 23 0.0 0.0 0.00 0.00 0.00 87 1017.4
20260506130416 47 23 0.0 0.0 0.00 0.00 0.00 87 1017.3
20260506125916 47 23 0.0 0.0 0.00 0.00 0.00 86 1017.2
20260506125412 47 23 0.0 0.0 0.00 0.00 0.00 86 1017.2
20260506124922 47 23 0.0 0.0 0.00 0.00 0.00 86 1017.2
20260506123913 47 23 0.0 0.0 0.00 0.00 0.00 86 1017.1
20260506123402 47 23 0.0 0.0 0.00 0.00 0.00 86 1017.0
20260506122842 48 23 0.0 0.0 0.00 0.00 0.00 85 1017.1
20260506122342 48 23 0.0 0.0 0.00 0.00 0.00 85 1016.9
20260506121836 48 23 0.0 0.0 0.00 0.00 0.00 85 1016.9
20260506121746 48 23 0.0 0.0 0.00 0.00 0.00 84 1017.2
20260506120838 48 23 0.0 0.0 0.00 0.00 0.00 84 1017.1
20260506120339 48 23 0.0 0.0 0.00 0.00 0.00 84 1017.1
20260506115935 48 23 0.0 0.0 0.00 0.00 0.00 84 1017.0
20260506115452 48 23 0.0 0.0 0.00 0.00 0.00 83 1017.0
20260506114921 49 23 0.0 0.0 0.00 0.00 0.00 83 1017.0
20260506114337 49 23 0.0 0.0 0.00 0.00 0.00 82 1017.0
20260506113850 49 23 0.0 0.0 0.00 0.00 0.00 82 1016.7
20260506113323 49 23 0.0 0.0 0.00 0.00 0.00 82 1016.9
20260506112819 49 23 0.0 0.0 0.00 0.00 0.00 82 1017.0
20260506112310 49 23 0.0 0.0 0.00 0.00 0.00 82 1016.9
20260506111810 49 23 0.0 0.0 0.00 0.00 0.00 81 1016.9
20260506111310 49 23 0.0 2.0 0.00 0.00 0.00 82 1016.8
20260506111250 49 23 0.0 2.0 0.00 0.00 0.00 82 1016.9
20260506110754 49 13 0.0 2.0 0.00 0.00 0.00 82 1016.9
20260506105809 49 1 0.0 0.0 0.00 0.00 0.00 82 1017.1
20260506105311 49 6 0.0 0.0 0.00 0.00 0.00 82 1017.0
20260506104811 49 6 0.0 1.0 0.00 0.00 0.00 82 1017.1
20260506104255 50 16 0.0 1.0 0.00 0.00 0.00 82 1017.2
20260506103751 50 1 0.0 2.0 0.00 0.00 0.00 82 1017.1
20260506103352 49 1 0.0 1.0 0.00 0.00 0.00 82 1017.2
20260506103309 50 1 0.0 2.0 0.00 0.00 0.00 82 1017.2
20260506102237 50 1 0.0 0.0 0.00 0.00 0.00 83 1017.1
20260506101736 49 1 0.0 0.0 0.00 0.00 0.00 82 1017.0
20260506101232 49 347 0.0 0.0 0.00 0.00 0.00 82 1017.1
20260506100728 49 347 0.0 1.0 0.00 0.00 0.00 82 1017.1
20260506100309 49 344 0.0 0.0 0.00 0.00 0.00 83 1017.1
20260506100238 49 347 0.0 1.0 0.00 0.00 0.00 82 1017.1
20260506095222 49 344 0.0 0.0 0.00 0.00 0.00 83 1017.2
20260506094726 49 344 0.0 0.0 0.00 0.00 0.00 82 1017.2
20260506093711 50 25 0.0 0.0 0.00 0.00 0.00 83 1017.3
20260506093658 49 25 0.0 0.0 0.00 0.00 0.00 82 1017.2
20260506092717 49 25 0.0 0.0 0.00 0.00 0.00 82 1017.2
20260506092212 49 25 0.0 0.0 0.00 0.00 0.00 82 1017.2
20260506091713 49 25 0.0 0.0 0.00 0.00 0.00 82 1017.3
20260506091133 49 25 0.0 0.0 0.00 0.00 0.00 83 1017.2
20260506090637 49 25 0.0 0.0 0.00 0.00 0.00 82 1017.2
20260506090232 49 25 0.0 0.0 0.00 0.00 0.00 83 1017.6
20260506090203 49 25 0.0 0.0 0.00 0.00 0.00 82 1017.3
20260506085118 49 21 0.0 1.0 0.00 0.00 0.00 84 1017.5
20260506084638 49 24 0.0 0.0 0.00 0.00 0.00 83 1017.7
20260506084624 49 13 0.0 1.0 0.00 0.00 0.00 83 1017.6
20260506083612 49 26 0.0 0.0 0.00 0.00 0.00 84 1017.6
20260506083545 49 26 0.0 0.0 0.00 0.00 0.00 84 1017.7
20260506082651 49 51 0.0 0.0 0.00 0.00 0.00 84 1017.6
20260506082624 49 46 0.0 0.0 0.00 0.00 0.00 84 1017.6
20260506081620 49 51 0.0 0.0 0.00 0.00 0.00 84 1017.6
20260506081116 49 40 0.0 1.0 0.00 0.00 0.00 84 1017.7
20260506080606 50 40 0.0 1.0 0.00 0.00 0.00 85 1018.0
20260506080107 50 40 0.0 0.0 0.00 0.00 0.00 84 1017.9
20260506073104 50 56 0.0 1.0 0.00 0.00 0.00 82 1018.0
20260506072605 50 57 0.0 1.0 0.00 0.00 0.00 81 1018.0
20260506072107 50 57 0.0 1.0 0.00 0.00 0.00 82 1017.9
20260506071608 50 58 0.0 0.0 0.00 0.00 0.00 81 1017.7
20260506071105 50 58 0.0 1.0 0.00 0.00 0.00 80 1017.7
20260506070534 50 58 0.0 2.0 0.00 0.00 0.00 80 1017.7
20260506061516 51 21 0.0 0.0 0.00 0.00 0.00 79 1017.2
20260506061017 50 21 0.0 2.0 0.00 0.00 0.00 79 1017.2
20260506060511 50 21 0.0 2.0 0.00 0.00 0.00 80 1017.3
20260506050917 51 57 0.0 1.0 0.00 0.00 0.00 81 1017.0
20260506044904 51 71 0.0 0.0 0.00 0.00 0.00 81 1016.8
20260506044415 51 71 0.0 0.0 0.00 0.00 0.00 81 1016.8
20260506043907 51 71 0.0 0.0 0.00 0.00 0.00 80 1016.8
20260506043400 51 71 0.0 0.0 0.00 0.00 0.00 80 1016.8
20260506042837 51 71 0.0 0.0 0.00 0.00 0.00 80 1016.8
20260506042756 51 74 0.0 1.0 0.00 0.00 0.00 80 1016.5
20260506041815 51 74 0.0 1.0 0.00 0.00 0.00 80 1016.4
20260506041344 52 79 0.0 2.0 0.00 0.00 0.00 79 1016.4
20260506041328 51 74 0.0 1.0 0.00 0.00 0.00 80 1016.4
20260506040739 52 79 0.0 2.0 0.00 0.00 0.00 79 1016.4
20260506040247 52 85 0.0 0.0 0.00 0.00 0.00 79 1016.5
20260506040003 52 85 0.0 0.0 0.00 0.00 0.00 79 1016.3
20260506034302 53 85 0.0 0.0 0.00 0.00 0.00 78 1016.3
20260506033736 53 85 0.0 0.0 0.00 0.00 0.00 77 1016.3
20260506033231 53 85 0.0 0.0 0.00 0.00 0.00 77 1016.3
20260506032732 54 85 0.0 0.0 0.00 0.00 0.00 77 1016.3
20260506032650 54 85 0.0 0.0 0.00 0.00 0.00 76 1016.3
20260506031714 55 85 0.0 0.0 0.00 0.00 0.00 75 1016.3
20260506031206 55 85 0.0 0.0 0.00 0.00 0.00 73 1016.1
20260506030658 55 89 0.0 0.0 0.00 0.00 0.00 73 1016.1
20260506030347 55 89 0.0 0.0 0.00 0.00 0.00 73 1015.9
20260506030228 55 89 0.0 0.0 0.00 0.00 0.00 73 1015.9
20260506025230 56 151 0.0 1.0 0.00 0.00 0.00 71 1015.6
20260506025155 55 89 0.0 0.0 0.00 0.00 0.00 72 1015.9
20260506024822 55 89 0.0 2.0 0.00 0.00 0.00 72 1015.7
20260506024217 56 89 0.0 2.0 0.00 0.00 0.00 72 1015.7
20260506023850 56 92 0.0 2.0 0.00 0.00 0.00 72 1015.7
20260506023230 56 67 0.0 1.0 0.00 0.00 0.00 71 1015.6
20260506022736 56 219 0.0 1.0 0.00 0.00 0.00 71 1015.6
20260506022329 56 123 0.0 0.0 0.00 0.00 0.00 71 1015.7
20260506021943 56 124 0.0 0.0 0.00 0.00 0.00 71 1015.7
20260506015739 58 113 1.0 3.0 0.00 0.00 0.00 66 1015.6
20260506015603 56 111 0.0 3.0 0.00 0.00 0.00 70 1015.6
20260506015126 57 142 0.0 2.0 0.00 0.00 0.00 70 1015.7
20260506014702 57 147 0.0 3.0 0.00 0.00 0.00 70 1015.6
20260506014047 57 162 0.0 3.0 0.00 0.00 0.00 69 1015.6
20260506013859 58 121 0.0 2.0 0.00 0.00 0.00 64 1015.6
20260506013821 58 134 0.0 3.0 0.00 0.00 0.00 65 1015.5
20260506013754 59 117 0.0 5.0 0.00 0.00 0.00 64 1015.6
20260506013608 57 108 0.0 1.0 0.00 0.00 0.00 69 1015.6
20260506013253 57 96 0.0 1.0 0.00 0.00 0.00 68 1015.5
20260506012913 57 131 0.0 2.0 0.00 0.00 0.00 68 1015.6
20260506012533 57 91 0.0 2.0 0.00 0.00 0.00 67 1015.6
20260506012132 58 141 0.0 2.0 0.00 0.00 0.00 67 1015.4
20260506011054 58 140 1.0 3.0 0.00 0.00 0.00 66 1015.5
20260506005741 58 114 1.0 3.0 0.00 0.00 0.00 66 1015.6
20260506003445 59 75 1.0 5.0 0.00 0.00 0.00 63 1015.5
20260506002937 59 126 1.0 5.0 0.00 0.00 0.00 63 1015.6
20260506002441 59 86 1.0 5.0 0.00 0.00 0.00 62 1015.6
20260506001939 59 99 1.0 4.0 0.00 0.00 0.00 62 1015.6
20260506001426 60 79 1.0 4.0 0.00 0.00 0.00 61 1015.6
20260506000913 60 91 0.0 3.0 0.00 0.00 0.00 60 1015.6
20260506000551 60 131 1.0 5.0 0.00 0.00 0.00 58 1015.6
20260506000456 60 89 1.0 5.0 0.00 0.00 0.00 59 1015.7
20260505235414 60 111 1.0 7.0 0.00 0.00 0.00 58 1015.7
20260505234914 61 184 1.0 7.0 0.00 0.00 0.00 57 1015.7
20260505234406 61 131 2.0 8.0 0.00 0.00 0.00 57 1015.7
20260505234253 61 150 2.0 7.0 0.00 0.00 0.00 57 1015.7
20260505234012 61 123 3.0 8.0 0.00 0.00 0.00 57 1015.8
20260505233136 60 114 2.0 6.0 0.00 0.00 0.00 60 1015.5
20260505232941 60 218 1.0 7.0 0.00 0.00 0.00 57 1015.6
20260505232333 59 252 1.0 4.0 0.00 0.00 0.00 62 1015.6
20260505232017 59 181 1.0 6.0 0.00 0.00 0.00 60 1015.6
20260505230848 58 105 1.0 5.0 0.00 0.00 0.00 63 1015.5
20260505230354 58 98 1.0 5.0 0.00 0.00 0.00 62 1015.6
20260505230036 57 146 0.0 3.0 0.00 0.00 0.00 63 1015.6
20260505225907 57 175 0.0 3.0 0.00 0.00 0.00 63 1015.6
20260505224840 57 124 0.0 3.0 0.00 0.00 0.00 63 1015.4
20260505224334 57 85 0.0 3.0 0.00 0.00 0.00 63 1015.6
20260505223921 57 92 1.0 5.0 0.00 0.00 0.00 64 1015.6
20260505223847 57 127 0.0 3.0 0.00 0.00 0.00 63 1015.4
20260505222853 57 94 0.0 3.0 0.00 0.00 0.00 63 1015.5
20260505222825 57 96 1.0 5.0 0.00 0.00 0.00 63 1015.6
20260505221810 57 117 0.0 4.0 0.00 0.00 0.00 63 1015.6
20260505221339 57 101 1.0 5.0 0.00 0.00 0.00 63 1015.7
20260505221319 57 111 1.0 5.0 0.00 0.00 0.00 63 1015.7
20260505220251 57 166 1.0 4.0 0.00 0.00 0.00 63 1015.7
20260505215750 58 160 1.0 4.0 0.00 0.00 0.00 62 1015.7
20260505215250 58 98 1.0 4.0 0.00 0.00 0.00 62 1015.6
20260505214734 58 174 1.0 4.0 0.00 0.00 0.00 62 1015.6
20260505214235 58 64 1.0 7.0 0.00 0.00 0.00 62 1015.6
20260505214041 58 129 0.0 4.0 0.00 0.00 0.00 63 1015.7
20260505213827 58 143 1.0 7.0 0.00 0.00 0.00 63 1015.6
20260505212731 58 109 1.0 4.0 0.00 0.00 0.00 64 1015.7
20260505212232 58 117 1.0 4.0 0.00 0.00 0.00 63 1015.8
20260505211719 58 155 1.0 6.0 0.00 0.00 0.00 63 1015.7
20260505211221 58 116 1.0 6.0 0.00 0.00 0.00 63 1015.8
20260505210955 59 93 1.0 5.0 0.00 0.00 0.00 63 1015.8
20260505210804 58 110 1.0 4.0 0.00 0.00 0.00 63 1015.8
20260505205714 59 88 1.0 5.0 0.00 0.00 0.00 64 1015.8
20260505205527 60 122 1.0 9.0 0.00 0.00 0.00 64 1015.8
20260505205259 59 118 1.0 4.0 0.00 0.00 0.00 64 1015.8
20260505204147 60 120 1.0 9.0 0.00 0.00 0.00 62 1015.8
20260505203649 61 98 0.0 3.0 0.00 0.00 0.00 60 1015.9
20260505203151 61 269 2.0 8.0 0.00 0.00 0.00 57 1015.9
20260505202646 61 279 2.0 8.0 0.00 0.00 0.00 56 1015.9
20260505202143 62 340 2.0 7.0 0.00 0.00 0.00 55 1015.9
20260505201638 62 155 2.0 7.0 0.00 0.00 0.00 54 1015.9
20260505201135 62 152 1.0 4.0 0.00 0.00 0.00 57 1015.9
20260505200633 61 165 1.0 3.0 0.00 0.00 0.00 57 1015.8
20260505200134 61 241 1.0 4.0 0.00 0.00 0.00 56 1015.9
20260505195632 61 233 1.0 4.0 0.00 0.00 0.00 58 1016.0
20260505195135 60 72 1.0 4.0 0.00 0.00 0.00 56 1015.9
20260505194627 60 276 2.0 4.0 0.00 0.00 0.00 57 1016.1
20260505194125 60 228 1.0 4.0 0.00 0.00 0.00 57 1016.1
20260505193634 60 139 2.0 5.0 0.00 0.00 0.00 56 1016.0
20260505193118 60 302 2.0 5.0 0.00 0.00 0.00 57 1016.1
20260505192615 60 216 1.0 5.0 0.00 0.00 0.00 57 1016.1
20260505192117 60 325 1.0 5.0 0.00 0.00 0.00 55 1016.4
20260505191610 60 215 1.0 5.0 0.00 0.00 0.00 57 1016.4